Location: Góra Kalwaria
(51.9847°N, 21.2025°E)
Time: 00:36:36
(UTC+02:00)

ISS - Visible Passes

Search period start: 21 September 2018 00:00
Search period end: 01 October 2018 00:00
Orbit: 403 x 408 km, 51.6° (Epoch: 20 September)

Date Brightness Start Highest point End Pass type
(mag) Time Alt. Az. Time Alt. Az. Time Alt. Az.
22 Sep -1.4 20:28:14 10° SSW 20:28:49 13° SSW 20:28:49 13° SSW visible
23 Sep -2.0 19:37:14 10° S 19:39:14 15° SE 19:39:35 15° SE visible
23 Sep -1.0 21:12:00 10° WSW 21:12:18 12° SW 21:12:18 12° SW visible
24 Sep -2.9 20:20:20 10° SW 20:22:51 34° S 20:22:51 34° S visible
25 Sep -2.6 19:28:50 10° SSW 19:31:39 26° SSE 19:33:16 18° ESE visible
25 Sep -1.7 21:04:34 10° WSW 21:05:57 23° WSW 21:05:57 23° WSW visible
26 Sep -3.8 20:12:44 10° WSW 20:15:59 58° SSE 20:16:13 56° SE visible
27 Sep -3.3 19:20:59 10° SW 19:24:08 43° SSE 19:26:24 17° E visible
27 Sep -2.1 20:57:11 10° W 20:59:05 31° W 20:59:05 31° W visible
28 Sep -3.9 20:05:16 10° WSW 20:08:34 78° S 20:09:11 55° E visible
28 Sep -0.4 21:41:45 10° W 21:41:51 11° W 21:41:51 11° W visible
29 Sep -3.7 19:13:22 10° WSW 19:16:39 64° SSE 19:19:13 15° E visible
29 Sep -2.3 20:49:48 10° W 20:51:53 36° W 20:51:53 36° W visible
30 Sep -3.9 19:57:50 10° W 20:01:09 87° S 20:01:53 51° E visible
30 Sep -0.5 21:34:20 10° W 21:34:33 11° W 21:34:33 11° W visible
